Home > Weather > Amman > Past weeks

Flag for Jordan Past Weather in Amman, Jordan — Yesterday and Last 2 Weeks

Now
84 °F

Haze.


Feels Like: 85 °F
Forecast: 71 / 88 °F
Wind: 9 mph from North

Location: Amman Airport

Current Time: Jun 29, 2016 at 12:20:24 PM

Latest Report: Jun 29, 2016 at 12:00 PM


Visibility: 3 mi

Pressure: 29.89 "Hg (27.25 "Hg at 816m altitude)

Humidity: 48%

Dew Point: 63 °F

Location of AmmanLocation

Past Weather in Amman — Graph

°F

Amman Temperature Yesterday

Maximum temperature yesterday: 84 °F (at 1:00 PM)
Minimum temperature yesterday: 68 °F (at 6:00 AM)
Average temperature yesterday: 76 °F

High & Low Weather Summary for the Past Weeks

 TemperatureHumidityPressure
High97 °F (Jun 14, 1:00 PM)83% (Jun 28, 6:00 AM)29.95 "Hg (Jun 28, 6:00 AM)
Low63 °F (Jun 16, 4:00 AM)10% (Jun 15, 11:00 AM)29.53 "Hg (Jun 24, 12:00 AM)
Average83 °F34%29.87 "Hg
* Reported Jun 14 11:00 AM — Jun 29 11:00 AM, Amman, Weather by CustomWeather, © 2016

Note: Actual official high and low records may vary slightly from our data, if they occured in-between our weather recording intervals... More about our weather records

Advertising

Amman Weather History for the Previous 24 Hours

Scroll right to see more
 ConditionsComfort  
Time TempWeatherWind HumidityBarometerVisibility
11:00 AM
Wed, Jun 29
79 °FHaze.5 mph58%29.89 "Hg3 mi
10:00 AM77 °FHaze.6 mph61%29.86 "Hg3 mi
9:00 AM73 °FHaze.No wind69%29.86 "Hg3 mi
8:00 AM72 °FPartly sunny.7 mph73%29.86 "Hg2 mi
7:00 AM70 °FPartly sunny.12 mph78%29.86 "Hg2 mi
6:00 AM70 °FPassing clouds.10 mph78%29.86 "Hg2 mi
5:00 AM70 °FPassing clouds.8 mph83%29.83 "Hg3 mi
4:00 AM70 °FPassing clouds.9 mph83%29.83 "Hg3 mi
3:00 AM70 °FPassing clouds.7 mph83%29.83 "Hg3 mi
2:00 AM70 °FPassing clouds.7 mph83%29.83 "Hg3 mi
1:00 AM70 °FPassing clouds.9 mph83%29.83 "Hg3 mi
12:00 AM72 °FPassing clouds.7 mph78%29.86 "Hg3 mi
11:00 PM
Tue, Jun 28
72 °FHaze.5 mph78%29.86 "Hg3 mi
10:00 PM73 °FHaze.9 mph65%29.83 "Hg3 mi
9:00 PM75 °FHaze.8 mph61%29.83 "Hg3 mi
8:00 PM77 °FHaze.8 mph57%29.83 "Hg3 mi
7:00 PM79 °FHaze.12 mph51%29.80 "Hg3 mi
6:00 PM82 °FHaze.12 mph42%29.80 "Hg3 mi
5:00 PM82 °FHaze.14 mph42%29.80 "Hg3 mi
4:00 PM82 °FHaze.15 mph42%29.80 "Hg3 mi
3:00 PM82 °FPassing clouds.8 mph42%29.80 "Hg4 mi
2:00 PM84 °FPassing clouds.14 mph40%29.83 "Hg4 mi
1:00 PM84 °FClear.7 mph40%29.83 "Hg4 mi
12:00 PM81 °FScattered clouds.12 mph45%29.83 "Hg4 mi
Weather by CustomWeather, © 2016

See weather overviewHow to use our weather pages